• In Austria
  • List of Countries
  • For 7 days
  • Water Temperature
  • Satellite Maps
  • Weather Map
  • News
  • Weather Widgets
  • user-avatar
    Login

    Hourly Weather Saurimo

    Today, 18 July, Wednesday

    Time Temperature Precipitation Wind Pressure Humidity
    00:00 +18°C° 0 mm 2 mps 673 mmHg 42%
    01:00 +18°C° 0 mm 3 mps 673 mmHg 43%
    02:00 +17°C° 0 mm 3 mps 673 mmHg 45%
    03:00 +17°C° 0 mm 3 mps 673 mmHg 46%
    04:00 +16°C° 0 mm 3 mps 672 mmHg 48%
    05:00 +17°C° 0 mm 4 mps 673 mmHg 48%
    06:00 +17°C° 0 mm 4 mps 673 mmHg 49%
    07:00 +17°C° 0 mm 4 mps 674 mmHg 50%
    08:00 +20°C° 0 mm 4 mps 674 mmHg 44%
    09:00 +22°C° 0 mm 4 mps 675 mmHg 39%
    10:00 +26°C° 0 mm 4 mps 675 mmHg 33%
    11:00 +27°C° 0 mm 4 mps 675 mmHg 29%
    12:00 +29°C° 0 mm 3 mps 675 mmHg 24%
    13:00 +31°C° 0 mm 3 mps 674 mmHg 20%
    14:00 +31°C° 0 mm 3 mps 674 mmHg 20%
    15:00 +31°C° 0 mm 3 mps 673 mmHg 19%
    16:00 +30°C° 0 mm 2 mps 673 mmHg 19%
    17:00 +28°C° 0 mm 2 mps 672 mmHg 23%
    18:00 +25°C° 0 mm 2 mps 672 mmHg 28%
    19:00 +23°C° 0 mm 2 mps 672 mmHg 32%
    20:00 +21°C° 0 mm 2 mps 673 mmHg 34%
    21:00 +20°C° 0 mm 2 mps 673 mmHg 36%
    22:00 +20°C° 0 mm 2 mps 673 mmHg 39%
    23:00 +19°C° 0 mm 3 mps 673 mmHg 38%

    Tomorrow, 19 July, Thursday

    Time Temperature Precipitation Wind Pressure Humidity
    00:00 +19°C° 0 mm 3 mps 673 mmHg 38%
    01:00 +19°C° 0 mm 3 mps 673 mmHg 38%
    02:00 +18°C° 0 mm 3 mps 673 mmHg 39%
    03:00 +18°C° 0 mm 3 mps 672 mmHg 41%
    04:00 +17°C° 0 mm 3 mps 672 mmHg 42%
    05:00 +17°C° 0 mm 3 mps 672 mmHg 43%
    06:00 +17°C° 0 mm 4 mps 673 mmHg 44%
    07:00 +17°C° 0 mm 4 mps 673 mmHg 45%
    08:00 +20°C° 0 mm 4 mps 674 mmHg 39%
    09:00 +23°C° 0 mm 4 mps 675 mmHg 34%
    10:00 +26°C° 0 mm 4 mps 675 mmHg 29%
    11:00 +28°C° 0 mm 3 mps 675 mmHg 25%
    12:00 +30°C° 0 mm 3 mps 674 mmHg 22%
    13:00 +32°C° 0 mm 2 mps 674 mmHg 18%
    14:00 +32°C° 0 mm 2 mps 673 mmHg 18%
    15:00 +32°C° 0 mm 2 mps 672 mmHg 18%
    16:00 +31°C° 0 mm 2 mps 672 mmHg 17%
    17:00 +29°C° 0 mm 2 mps 672 mmHg 21%
    18:00 +26°C° 0 mm 2 mps 672 mmHg 24%
    19:00 +24°C° 0 mm 2 mps 672 mmHg 28%
    20:00 +23°C° 0 mm 2 mps 672 mmHg 29%
    21:00 +21°C° 0 mm 2 mps 672 mmHg 30%
    22:00 +21°C° 0 mm 3 mps 673 mmHg 31%
    23:00 +20°C° 0 mm 3 mps 672 mmHg 31%

    Day after tomorrow, 20 July, Friday

    Time Temperature Precipitation Wind Pressure Humidity
    00:00 +19°C° 0 mm 3 mps 672 mmHg 32%
    01:00 +19°C° 0 mm 3 mps 672 mmHg 33%
    02:00 +18°C° 0 mm 3 mps 672 mmHg 34%
    03:00 +18°C° 0 mm 3 mps 671 mmHg 36%
    04:00 +17°C° 0 mm 3 mps 671 mmHg 37%
    05:00 +17°C° 0 mm 3 mps 672 mmHg 39%
    06:00 +17°C° 0 mm 4 mps 672 mmHg 40%
    07:00 +17°C° 0 mm 4 mps 673 mmHg 41%
    08:00 +20°C° 0 mm 4 mps 673 mmHg 37%
    09:00 +23°C° 0 mm 4 mps 674 mmHg 32%
    10:00 +27°C° 0 mm 4 mps 674 mmHg 27%
    11:00 +29°C° 0 mm 3 mps 674 mmHg 24%
    12:00 +31°C° 0 mm 3 mps 673 mmHg 20%
    13:00 +34°C° 0 mm 2 mps 673 mmHg 17%
    14:00 +32°C° 0 mm 2 mps 672 mmHg 16%
    15:00 +32°C° 0 mm 2 mps 671 mmHg 16%
    16:00 +32°C° 0 mm 2 mps 671 mmHg 16%
    17:00 +29°C° 0 mm 2 mps 671 mmHg 19%
    18:00 +27°C° 0 mm 2 mps 671 mmHg 22%
    19:00 +24°C° 0 mm 2 mps 671 mmHg 26%
    20:00 +23°C° 0 mm 2 mps 672 mmHg 27%
    21:00 +23°C° 0 mm 2 mps 672 mmHg 28%
    22:00 +21°C° 0 mm 3 mps 672 mmHg 29%
    23:00 +21°C° 0 mm 3 mps 672 mmHg 29%

    21 July, Saturday

    Time Temperature Precipitation Wind Pressure Humidity
    00:00 +20°C° 0 mm 3 mps 672 mmHg 30%
    01:00 +20°C° 0 mm 3 mps 671 mmHg 30%
    02:00 +19°C° 0 mm 3 mps 671 mmHg 32%
    03:00 +18°C° 0 mm 3 mps 671 mmHg 34%
    04:00 +18°C° 0 mm 3 mps 671 mmHg 36%
    05:00 +18°C° 0 mm 3 mps 671 mmHg 37%
    06:00 +18°C° 0 mm 3 mps 672 mmHg 38%
    07:00 +18°C° 0 mm 4 mps 673 mmHg 39%
    08:00 +21°C° 0 mm 4 mps 673 mmHg 33%
    09:00 +25°C° 0 mm 3 mps 674 mmHg 28%
    10:00 +28°C° 0 mm 3 mps 674 mmHg 23%
    11:00 +30°C° 0 mm 3 mps 674 mmHg 20%
    12:00 +32°C° 0 mm 2 mps 673 mmHg 17%
    13:00 +35°C° 0 mm 2 mps 673 mmHg 14%
    14:00 +35°C° 0 mm 2 mps 673 mmHg 14%
    15:00 +34°C° 0 mm 2 mps 672 mmHg 14%
    16:00 +34°C° 0 mm 2 mps 672 mmHg 13%
    17:00 +30°C° 0 mm 2 mps 672 mmHg 16%
    18:00 +28°C° 0 mm 2 mps 672 mmHg 19%
    19:00 +25°C° 0 mm 2 mps 672 mmHg 22%
    20:00 +24°C° 0 mm 2 mps 672 mmHg 24%
    21:00 +23°C° 0 mm 2 mps 672 mmHg 26%
    22:00 +21°C° 0 mm 2 mps 672 mmHg 28%
    23:00 +20°C° 0 mm 2 mps 672 mmHg 29%

    22 July, Sunday

    Time Temperature Precipitation Wind Pressure Humidity
    00:00 +20°C° 0 mm 2 mps 672 mmHg 30%
    01:00 +19°C° 0 mm 3 mps 672 mmHg 31%
    02:00 +19°C° 0 mm 3 mps 672 mmHg 32%
    03:00 +18°C° 0 mm 3 mps 671 mmHg 33%
    04:00 +18°C° 0 mm 3 mps 671 mmHg 35%
    05:00 +18°C° 0 mm 3 mps 672 mmHg 35%
    06:00 +18°C° 0 mm 3 mps 672 mmHg 36%
    07:00 +18°C° 0 mm 4 mps 673 mmHg 36%
    08:00 +22°C° 0 mm 4 mps 673 mmHg 32%
    09:00 +26°C° 0 mm 4 mps 674 mmHg 28%
    10:00 +29°C° 0 mm 4 mps 674 mmHg 23%
    11:00 +31°C° 0 mm 3 mps 674 mmHg 20%
    12:00 +34°C° 0 mm 3 mps 674 mmHg 16%
    13:00 +36°C° 0 mm 2 mps 673 mmHg 13%
    14:00 +36°C° 0 mm 2 mps 673 mmHg 13%
    15:00 +35°C° 0 mm 2 mps 672 mmHg 13%
    16:00 +35°C° 0 mm 2 mps 672 mmHg 13%
    17:00 +31°C° 0 mm 2 mps 672 mmHg 16%
    18:00 +28°C° 0 mm 2 mps 672 mmHg 19%
    19:00 +25°C° 0 mm 2 mps 672 mmHg 22%
    20:00 +24°C° 0 mm 2 mps 672 mmHg 24%
    21:00 +24°C° 0 mm 2 mps 672 mmHg 26%
    22:00 +23°C° 0 mm 2 mps 672 mmHg 28%
    23:00 +21°C° 0 mm 2 mps 672 mmHg 29%

    23 July, Monday

    Time Temperature Precipitation Wind Pressure Humidity
    00:00 +21°C° 0 mm 3 mps 672 mmHg 30%
    01:00 +21°C° 0 mm 3 mps 672 mmHg 31%
    02:00 +20°C° 0 mm 3 mps 672 mmHg 33%
    03:00 +20°C° 0 mm 3 mps 672 mmHg 35%
    04:00 +19°C° 0 mm 3 mps 671 mmHg 37%
    05:00 +19°C° 0 mm 3 mps 672 mmHg 38%
    06:00 +20°C° 0 mm 4 mps 672 mmHg 38%
    07:00 +20°C° 0 mm 4 mps 673 mmHg 39%
    08:00 +23°C° 0 mm 4 mps 673 mmHg 34%
    09:00 +27°C° 0 mm 4 mps 674 mmHg 29%
    10:00 +29°C° 0 mm 4 mps 674 mmHg 25%
    11:00 +32°C° 0 mm 4 mps 674 mmHg 22%
    12:00 +34°C° 0 mm 3 mps 674 mmHg 18%
    13:00 +35°C° 0 mm 3 mps 673 mmHg 15%
    14:00 +35°C° 0 mm 3 mps 673 mmHg 15%
    15:00 +35°C° 0 mm 3 mps 672 mmHg 15%
    16:00 +35°C° 0 mm 3 mps 672 mmHg 15%
    17:00 +31°C° 0 mm 2 mps 672 mmHg 19%
    18:00 +28°C° 0 mm 2 mps 672 mmHg 23%
    19:00 +26°C° 0 mm 2 mps 672 mmHg 26%
    20:00 +25°C° 0 mm 2 mps 672 mmHg 28%
    21:00 +24°C° 0 mm 2 mps 672 mmHg 30%
    22:00 +23°C° 0 mm 2 mps 673 mmHg 32%
    23:00 +22°C° 0 mm 3 mps 672 mmHg 32%
    Show more